Overview Statistics Trail Chart Weather Telemetry Raw packets
 

This is the latest recevied weather packets stored in our database for station/object KB4MOX. If no packets are shown the sender has not sent any weather packets the latest 10 day(s).

<< 50 51 52 53 54 55 56 >>
Time Temp. Humidity Pressure Rain* Wind** Luminosity Snow
1788277310 31.67° C 61% 1020.5 hPa 0 mm - 678 W/m² -
1788277006 31.11° C 62% 1020.7 hPa 0 mm - 653 W/m² -
1788276700 31.11° C 64% 1020.7 hPa 0 mm - 251 W/m² -
1788276394 30.56° C 65% 1020.7 hPa 0 mm - 284 W/m² -
1788276092 30.56° C 66% 1020.8 hPa 0 mm - 340 W/m² -
1788275789 30.56° C 68% 1020.9 hPa 0 mm - 147 W/m² -
1788275488 30.56° C 68% 1020.7 hPa 0 mm - 105 W/m² -
1788275187 30.56° C 67% 1020.8 hPa 0 mm - 65 W/m² -
1788274886 30° C 69% 1020.7 hPa 0 mm - 143 W/m² -
1788274584 30° C 70% 1020.9 hPa 0 mm - 130 W/m² -
1788274283 30° C 71% 1020.7 hPa 0 mm - 386 W/m² -
1788273979 29.44° C 72% 1020.6 hPa 0 mm - 68 W/m² -
1788273674 29.44° C 72% 1020.8 hPa 0 mm - 49 W/m² -
1788273369 29.44° C 71% 1020.8 hPa 0 mm - 53 W/m² -
1788273066 29.44° C 73% 1020.8 hPa 0 mm - 80 W/m² -
1788272762 28.89° C 73% 1020.6 hPa 0 mm - 56 W/m² -
1788272461 28.89° C 75% 1020.7 hPa 0 mm - 161 W/m² -
1788272150 28.89° C 74% 1020.7 hPa 0 mm - 53 W/m² -
1788271845 28.33° C 75% 1020.6 hPa 0 mm - 45 W/m² -
1788271555 28.33° C 75% 1020.6 hPa 0 mm - 44 W/m² -
1788271244 28.33° C 75% 1020.7 hPa 0 mm - 44 W/m² -
1788270942 28.33° C 75% 1020.7 hPa 0 mm - 43 W/m² -
1788270638 27.78° C 74% 1020.9 hPa 0 mm - 68 W/m² -
1788270335 27.78° C 75% 1020.5 hPa 0 mm - 42 W/m² -
1788270029 27.78° C 74% 1020.7 hPa 0 mm - 41 W/m² -

* Rain latest hour (hover to see other rain measurements)
** Current wind speed in m/s (hover to see current wind gust speed)